FW9783 Weather Reports


Display with metric or nautical units.
time (UTC)temp
F
wind
direction
speed
MPH
gust
MPH
rain 1hr
in
rain 24hr
in
rain mn
in
humidity
%
barometer
mb
20260505124803 52 82 0.0 5.0 0.00 0.00 0.00 53 1010.9
20260505124706 52 82 0.0 5.0 0.00 0.00 0.00 53 1015.1
20260505124304 52 55 0.0 6.0 0.00 0.00 0.00 54 1010.9
20260505124202 52 55 0.0 0.0 0.00 0.00 0.00 54 1015.1
20260505123804 52 201 0.0 6.0 0.00 0.00 0.00 53 1010.7
20260505123658 52 203 0.0 0.0 0.00 0.00 0.00 53 1014.9
20260505123304 52 262 0.0 6.0 0.00 0.00 0.00 53 1010.8
20260505123156 52 255 0.0 0.0 0.00 0.00 0.00 53 1015.0
20260505122804 53 218 0.0 8.0 0.00 0.00 0.00 53 1010.8
20260505122652 53 218 0.0 2.0 0.00 0.00 0.00 53 1015.0
20260505122305 53 47 1.0 8.0 0.00 0.00 0.00 53 1010.6
20260505122149 53 48 2.0 6.0 0.00 0.00 0.00 53 1014.8
20260505121804 54 61 1.0 8.0 0.00 0.00 0.00 53 1010.5
20260505121646 54 79 1.0 5.0 0.00 0.00 0.00 53 1014.7
20260505121143 54 7 0.0 0.0 0.00 0.00 0.00 53 1014.7
20260505120804 54 89 0.0 3.0 0.00 0.00 0.00 53 1010.2
20260505120639 54 204 0.0 0.0 0.00 0.00 0.00 53 1014.5
20260505120135 54 353 0.0 0.0 0.00 0.00 0.00 53 1014.1
20260505115629 54 259 0.0 0.0 0.00 0.00 0.00 53 1014.4
20260505115305 54 329 0.0 9.0 0.00 0.00 0.00 53 1010.2
20260505115127 54 292 0.0 0.0 0.00 0.00 0.00 53 1014.4
20260505114804 54 239 1.0 9.0 0.00 0.00 0.00 53 1010.0
20260505114624 54 328 3.0 9.0 0.00 0.00 0.00 53 1013.9
20260505114304 54 58 0.0 6.0 0.00 0.00 0.00 53 1009.8
20260505114120 54 57 0.0 0.0 0.00 0.00 0.00 53 1013.8
20260505113803 54 216 0.0 7.0 0.00 0.00 0.00 53 1009.9
20260505113617 54 207 0.0 6.0 0.00 0.00 0.00 53 1014.0
20260505113304 54 295 0.0 7.0 0.00 0.00 0.00 53 1009.7
20260505113114 55 347 0.0 3.0 0.00 0.00 0.00 53 1014.0
20260505112804 55 229 2.0 7.0 0.00 0.00 0.00 53 1010.1
20260505112610 55 180 3.0 7.0 0.00 0.00 0.00 53 1014.2
20260505112305 55 289 0.0 7.0 0.00 0.00 0.00 54 1009.9
20260505112109 55 206 0.0 1.0 0.00 0.00 0.00 54 1014.2
20260505111804 55 200 1.0 7.0 0.00 0.00 0.00 54 1009.9
20260505111607 55 76 1.0 2.0 0.00 0.00 0.00 54 1014.2
20260505111304 55 131 0.0 7.0 0.00 0.00 0.00 55 1009.9
20260505111103 55 31 0.0 7.0 0.00 0.00 0.00 55 1014.0
20260505110804 55 57 0.0 5.0 0.00 0.00 0.00 57 1009.7
20260505110600 56 325 0.0 5.0 0.00 0.00 0.00 57 1013.7
20260505102033 59 335 2.0 5.0 0.00 0.00 0.00 53 1013.6
20260505101804 59 124 1.0 15.0 0.00 0.00 0.00 53 1009.5
20260505101531 59 359 1.0 14.0 0.00 0.00 0.00 52 1013.6
20260505101027 59 328 4.0 15.0 0.00 0.00 0.00 51 1013.8
20260505100804 60 351 2.0 18.0 0.00 0.00 0.00 51 1009.5
20260505100524 60 285 3.0 9.0 0.00 0.00 0.00 50 1013.6
20260505100021 61 341 5.0 13.0 0.00 0.00 0.00 47 1013.3
20260505095804 61 1 6.0 23.0 0.00 0.00 0.00 44 1009.3
20260505095517 62 9 0.0 5.0 0.00 0.00 0.00 42 1013.2
20260505095305 62 338 1.0 23.0 0.00 0.00 0.00 40 1009.1
20260505095014 63 197 3.0 23.0 0.00 0.00 0.00 38 1012.8
20260505094803 63 350 2.0 13.0 0.00 0.00 0.00 36 1008.9
20260505094510 64 330 1.0 10.0 0.00 0.00 0.00 34 1013.0
20260505094304 64 354 1.0 13.0 0.00 0.00 0.00 33 1008.8
20260505094007 64 329 1.0 6.0 0.00 0.00 0.00 31 1012.6
20260505093804 65 325 2.0 13.0 0.00 0.00 0.00 30 1008.5
20260505093503 65 300 0.0 5.0 0.00 0.00 0.00 29 1012.3
20260505093000 66 22 0.0 8.0 0.00 0.00 0.00 26 1012.2
20260505092804 67 321 2.0 16.0 0.00 0.00 0.00 25 1008.3
20260505092458 68 356 0.0 3.0 0.00 0.00 0.00 24 1012.1
20260505091955 68 273 0.0 7.0 0.00 0.00 0.00 23 1012.1
20260505091804 69 295 0.0 21.0 0.00 0.00 0.00 23 1008.0
20260505091453 69 334 1.0 3.0 0.00 0.00 0.00 23 1011.8
20260505091304 69 33 0.0 21.0 0.00 0.00 0.00 23 1008.0
20260505090951 69 10 0.0 2.0 0.00 0.00 0.00 23 1011.7
20260505090448 68 310 2.0 5.0 0.00 0.00 0.00 24 1011.8
20260505090304 68 309 0.0 5.0 0.00 0.00 0.00 25 1007.7
20260505085945 68 327 0.0 0.0 0.00 0.00 0.00 25 1011.3
20260505085443 67 263 0.0 0.0 0.00 0.00 0.00 26 1011.4
20260505085305 67 237 0.0 9.0 0.00 0.00 0.00 26 1007.6
20260505084941 67 194 0.0 9.0 0.00 0.00 0.00 26 1011.2
20260505084439 68 206 0.0 3.0 0.00 0.00 0.00 26 1010.9
20260505083937 68 273 0.0 0.0 0.00 0.00 0.00 26 1011.1
20260505083803 67 126 0.0 1.0 0.00 0.00 0.00 26 1007.1
20260505083434 68 205 0.0 0.0 0.00 0.00 0.00 26 1011.0
20260505083303 68 267 0.0 7.0 0.00 0.00 0.00 26 1006.9
20260505082930 68 176 0.0 1.0 0.00 0.00 0.00 26 1010.7
20260505082804 68 139 0.0 7.0 0.00 0.00 0.00 26 1007.0
20260505082426 68 310 0.0 3.0 0.00 0.00 0.00 25 1010.6
20260505082304 68 299 0.0 7.0 0.00 0.00 0.00 25 1006.9
20260505081923 68 231 0.0 1.0 0.00 0.00 0.00 26 1010.8
20260505081804 68 211 0.0 5.0 0.00 0.00 0.00 26 1007.0
20260505081420 68 245 0.0 1.0 0.00 0.00 0.00 25 1010.8
20260505081304 68 261 1.0 5.0 0.00 0.00 0.00 25 1006.9
20260505080916 68 47 0.0 2.0 0.00 0.00 0.00 25 1010.9
20260505080803 68 227 0.0 2.0 0.00 0.00 0.00 25 1007.2
20260505080413 68 235 0.0 0.0 0.00 0.00 0.00 25 1010.8
20260505075908 68 260 0.0 0.0 0.00 0.00 0.00 25 1011.1
20260505075804 69 189 0.0 2.0 0.00 0.00 0.00 25 1007.3
20260505075405 69 272 0.0 2.0 0.00 0.00 0.00 25 1011.4
20260505075304 69 277 0.0 7.0 0.00 0.00 0.00 25 1007.4
20260505074903 69 259 0.0 1.0 0.00 0.00 0.00 25 1011.4
20260505074804 69 244 0.0 7.0 0.00 0.00 0.00 25 1007.3
20260505074400 69 171 0.0 1.0 0.00 0.00 0.00 25 1011.4
20260505074304 69 280 0.0 6.0 0.00 0.00 0.00 25 1007.3
20260505073857 69 198 0.0 0.0 0.00 0.00 0.00 25 1011.2
20260505073804 69 282 0.0 6.0 0.00 0.00 0.00 25 1007.3
20260505073355 69 216 0.0 0.0 0.00 0.00 0.00 25 1011.2
20260505073304 69 241 0.0 5.0 0.00 0.00 0.00 25 1007.3
20260505072852 69 169 0.0 1.0 0.00 0.00 0.00 25 1011.2
20260505072804 69 317 0.0 5.0 0.00 0.00 0.00 25 1007.4
20260505072348 69 249 0.0 0.0 0.00 0.00 0.00 25 1011.3
20260505072305 69 267 0.0 5.0 0.00 0.00 0.00 25 1007.5
20260505071844 69 263 0.0 0.0 0.00 0.00 0.00 24 1011.0
20260505071804 69 214 1.0 3.0 0.00 0.00 0.00 25 1007.3
20260505071340 69 220 0.0 1.0 0.00 0.00 0.00 25 1011.0
20260505071304 69 264 0.0 3.0 0.00 0.00 0.00 25 1007.2
20260505070839 70 236 0.0 0.0 0.00 0.00 0.00 24 1011.1
20260505070804 70 262 0.0 14.0 0.00 0.00 0.00 24 1007.3
20260505070335 70 226 0.0 0.0 0.00 0.00 0.00 24 1011.0
20260505070304 70 140 0.0 14.0 0.00 0.00 0.00 24 1007.4
20260505065830 70 261 1.0 14.0 0.00 0.00 0.00 24 1011.1
20260505065804 69 288 0.0 14.0 0.00 0.00 0.00 24 1007.5
20260505065327 69 259 0.0 1.0 0.00 0.00 0.00 24 1011.0
20260505065304 69 229 1.0 8.0 0.00 0.00 0.00 24 1007.5
20260505064824 70 212 0.0 3.0 0.00 0.00 0.00 24 1011.0
20260505064804 69 295 1.0 8.0 0.00 0.00 0.00 24 1007.2
20260505064321 69 7 0.0 3.0 0.00 0.00 0.00 24 1011.1
20260505064303 70 262 0.0 8.0 0.00 0.00 0.00 24 1007.4
20260505063819 70 243 0.0 1.0 0.00 0.00 0.00 24 1011.0
20260505063804 70 157 1.0 8.0 0.00 0.00 0.00 24 1007.3
20260505063315 70 301 0.0 1.0 0.00 0.00 0.00 24 1011.4
20260505063303 70 235 0.0 12.0 0.00 0.00 0.00 24 1007.3
20260505062811 70 277 0.0 5.0 0.00 0.00 0.00 24 1011.2
20260505062804 70 257 0.0 12.0 0.00 0.00 0.00 24 1007.5
20260505062309 70 190 0.0 0.0 0.00 0.00 0.00 24 1011.3
20260505062304 70 210 0.0 12.0 0.00 0.00 0.00 24 1007.7
20260505061806 70 283 1.0 2.0 0.00 0.00 0.00 24 1011.7
20260505061304 70 226 1.0 6.0 0.00 0.00 0.00 24 1011.3
20260505060803 70 248 0.0 10.0 0.00 0.00 0.00 24 1007.4
20260505060801 70 250 0.0 1.0 0.00 0.00 0.00 24 1011.2
20260505060304 70 230 0.0 14.0 0.00 0.00 0.00 24 1007.4
20260505060258 70 204 0.0 0.0 0.00 0.00 0.00 24 1011.3
20260505055803 70 196 0.0 14.0 0.00 0.00 0.00 24 1007.4
20260505055753 70 172 0.0 7.0 0.00 0.00 0.00 24 1011.3
20260505055304 70 167 1.0 14.0 0.00 0.00 0.00 24 1007.4
20260505055250 70 230 0.0 14.0 0.00 0.00 0.00 24 1011.4
20260505054803 70 217 0.0 14.0 0.00 0.00 0.00 24 1007.6
20260505054747 70 231 1.0 3.0 0.00 0.00 0.00 24 1011.3
20260505054303 70 219 0.0 14.0 0.00 0.00 0.00 24 1007.5
20260505054245 70 226 2.0 11.0 0.00 0.00 0.00 24 1011.1
20260505053803 71 236 1.0 14.0 0.00 0.00 0.00 23 1007.5
20260505053743 71 244 1.0 3.0 0.00 0.00 0.00 23 1011.6
20260505053303 71 233 1.0 22.0 0.00 0.00 0.00 23 1007.6
20260505053239 71 233 0.0 8.0 0.00 0.00 0.00 23 1011.4
20260505052804 71 275 0.0 22.0 0.00 0.00 0.00 23 1007.5
20260505052736 71 277 0.0 8.0 0.00 0.00 0.00 23 1011.3
20260505052304 71 247 2.0 22.0 0.00 0.00 0.00 23 1007.5
20260505052234 71 253 1.0 17.0 0.00 0.00 0.00 23 1011.2
20260505051804 71 228 1.0 8.0 0.00 0.00 0.00 23 1007.6
20260505051730 71 228 2.0 8.0 0.00 0.00 0.00 23 1011.4
20260505051304 71 260 0.0 10.0 0.00 0.00 0.00 23 1007.4
20260505051229 71 261 0.0 1.0 0.00 0.00 0.00 23 1011.2
20260505050806 71 175 1.0 10.0 0.00 0.00 0.00 23 1007.5
20260505050726 71 142 0.0 6.0 0.00 0.00 0.00 23 1011.3
20260505050304 71 266 1.0 16.0 0.00 0.00 0.00 23 1007.5
20260505050224 71 266 0.0 9.0 0.00 0.00 0.00 23 1011.3
20260505041654 72 235 1.0 22.0 0.00 0.00 0.00 23 1011.2
20260505041303 72 230 3.0 21.0 0.00 0.00 0.00 23 1007.4
20260505041151 72 230 2.0 21.0 0.00 0.00 0.00 23 1011.2
20260505040803 72 218 1.0 8.0 0.00 0.00 0.00 23 1007.6
20260505040648 72 214 1.0 7.0 0.00 0.00 0.00 23 1011.4
20260505040303 72 210 0.0 12.0 0.00 0.00 0.00 23 1007.8
20260505040146 72 202 0.0 2.0 0.00 0.00 0.00 23 1011.6
20260505035804 72 190 1.0 14.0 0.00 0.00 0.00 23 1007.7
20260505035642 73 198 2.0 7.0 0.00 0.00 0.00 23 1011.7
20260505035304 73 258 1.0 20.0 0.00 0.00 0.00 22 1007.6
20260505035138 73 300 2.0 11.0 0.00 0.00 0.00 22 1011.4
20260505034635 73 199 0.0 13.0 0.00 0.00 0.00 22 1011.4
20260505034304 74 249 3.0 20.0 0.00 0.00 0.00 21 1007.3
20260505034132 74 232 5.0 20.0 0.00 0.00 0.00 21 1011.3
20260505033804 74 231 3.0 17.0 0.00 0.00 0.00 21 1007.6
20260505033628 74 205 3.0 17.0 0.00 0.00 0.00 21 1011.3
20260505033304 74 250 2.0 18.0 0.00 0.00 0.00 20 1007.5
20260505033127 74 243 2.0 8.0 0.00 0.00 0.00 20 1011.4
20260505032804 74 207 1.0 20.0 0.00 0.00 0.00 20 1007.5
20260505032625 74 240 1.0 7.0 0.00 0.00 0.00 20 1011.2
20260505032304 74 301 5.0 20.0 0.00 0.00 0.00 19 1007.5
20260505032121 74 268 7.0 20.0 0.00 0.00 0.00 19 1011.2
20260505031804 74 269 3.0 16.0 0.00 0.00 0.00 19 1007.3
20260505031618 74 213 2.0 16.0 0.00 0.00 0.00 18 1011.2
20260505031114 75 230 6.0 14.0 0.00 0.00 0.00 18 1011.2
20260505030804 74 171 0.0 14.0 0.00 0.00 0.00 17 1007.5
20260505030611 74 225 0.0 14.0 0.00 0.00 0.00 17 1011.2
20260505030304 74 199 1.0 15.0 0.00 0.00 0.00 17 1007.2
20260505030107 75 176 0.0 7.0 0.00 0.00 0.00 17 1011.1
20260505025804 75 240 2.0 15.0 0.00 0.00 0.00 17 1007.3
20260505025603 75 243 2.0 7.0 0.00 0.00 0.00 17 1011.1
20260505025305 75 251 3.0 15.0 0.00 0.00 0.00 16 1007.2
20260505025102 75 197 2.0 10.0 0.00 0.00 0.00 16 1010.9
20260505024804 75 251 2.0 16.0 0.00 0.00 0.00 16 1007.3
20260505024559 75 294 0.0 9.0 0.00 0.00 0.00 16 1010.9
20260505024303 75 270 0.0 16.0 0.00 0.00 0.00 16 1007.2
20260505024056 76 239 0.0 9.0 0.00 0.00 0.00 16 1010.8
20260505023553 76 246 3.0 15.0 0.00 0.00 0.00 16 1011.0
20260505023050 76 221 2.0 16.0 0.00 0.00 0.00 16 1010.8
20260505022548 76 253 2.0 13.0 0.00 0.00 0.00 15 1010.7
20260505022304 76 221 1.0 16.0 0.00 0.00 0.00 15 1007.0
20260505022045 76 273 0.0 7.0 0.00 0.00 0.00 15 1010.6
20260505021804 76 218 1.0 16.0 0.00 0.00 0.00 15 1007.0
20260505021542 77 237 0.0 16.0 0.00 0.00 0.00 15 1010.9
20260505021304 77 298 2.0 16.0 0.00 0.00 0.00 15 1007.0
20260505021038 77 230 3.0 10.0 0.00 0.00 0.00 15 1010.8
20260505020804 77 282 2.0 13.0 0.00 0.00 0.00 15 1007.1
20260505020538 77 245 1.0 8.0 0.00 0.00 0.00 15 1010.8
20260505020304 77 260 2.0 13.0 0.00 0.00 0.00 15 1007.2
20260505020035 77 227 2.0 6.0 0.00 0.00 0.00 15 1010.8
20260505015803 77 209 1.0 14.0 0.00 0.00 0.00 15 1007.1
20260505015533 78 227 0.0 8.0 0.00 0.00 0.00 15 1010.8
20260505015304 78 180 1.0 17.0 0.00 0.00 0.00 14 1007.1
20260505015029 78 290 2.0 14.0 0.00 0.00 0.00 14 1010.8
20260505014804 78 339 1.0 17.0 0.00 0.00 0.00 14 1007.0
20260505014526 78 281 1.0 15.0 0.00 0.00 0.00 14 1010.9
20260505014304 78 226 2.0 18.0 0.00 0.00 0.00 14 1006.9
20260505014023 79 246 3.0 17.0 0.00 0.00 0.00 14 1010.8
20260505013804 79 243 2.0 20.0 0.00 0.00 0.00 14 1006.9
20260505013520 79 234 5.0 18.0 0.00 0.00 0.00 14 1010.6
20260505013304 79 230 4.0 20.0 0.00 0.00 0.00 14 1007.0
20260505013018 79 240 1.0 14.0 0.00 0.00 0.00 14 1010.7
20260505012804 79 250 4.0 14.0 0.00 0.00 0.00 14 1006.8
20260505012516 79 289 0.0 14.0 0.00 0.00 0.00 14 1010.6
20260505012013 80 254 3.0 10.0 0.00 0.00 0.00 14 1010.7
20260505011804 80 234 1.0 18.0 0.00 0.00 0.00 14 1006.7
20260505011508 80 232 0.0 11.0 0.00 0.00 0.00 14 1010.6
20260505011303 80 180 2.0 20.0 0.00 0.00 0.00 14 1006.8
20260505011005 80 266 1.0 9.0 0.00 0.00 0.00 14 1010.7
20260505010804 80 225 1.0 20.0 0.00 0.00 0.00 14 1006.8
20260505010501 80 219 5.0 18.0 0.00 0.00 0.00 13 1010.3
20260505010304 81 273 4.0 24.0 0.00 0.00 0.00 13 1006.8
20260505005957 81 275 1.0 8.0 0.00 0.00 0.00 13 1010.6
20260505005454 81 321 6.0 24.0 0.00 0.00 0.00 13 1010.8
20260505005304 81 254 5.0 23.0 0.00 0.00 0.00 13 1006.9
20260505004952 82 241 0.0 11.0 0.00 0.00 0.00 13 1010.4
20260505004803 82 173 1.0 21.0 0.00 0.00 0.00 13 1006.9
20260505004448 82 249 3.0 8.0 0.00 0.00 0.00 13 1010.7
20260505003945 82 308 0.0 15.0 0.00 0.00 0.00 13 1010.6
20260505003804 82 232 1.0 17.0 0.00 0.00 0.00 13 1007.0
20260505003442 82 250 0.0 10.0 0.00 0.00 0.00 13 1010.8
20260505003304 82 266 0.0 20.0 0.00 0.00 0.00 13 1007.0
20260505002938 82 274 0.0 6.0 0.00 0.00 0.00 13 1010.9
20260505002803 82 217 3.0 28.0 0.00 0.00 0.00 13 1006.9
20260505002435 83 287 6.0 17.0 0.00 0.00 0.00 13 1010.7
20260505002304 83 239 3.0 28.0 0.00 0.00 0.00 13 1007.0
20260505001933 83 206 8.0 18.0 0.00 0.00 0.00 13 1010.9
20260505001803 83 259 8.0 28.0 0.00 0.00 0.00 12 1007.0
20260505001430 83 250 1.0 18.0 0.00 0.00 0.00 13 1010.9
20260505001304 83 242 4.0 25.0 0.00 0.00 0.00 12 1007.2
20260505000927 83 240 5.0 25.0 0.00 0.00 0.00 12 1010.9
20260505000804 83 243 2.0 25.0 0.00 0.00 0.00 13 1006.8
20260505000427 83 162 4.0 23.0 0.00 0.00 0.00 12 1010.9
20260505000303 83 245 4.0 22.0 0.00 0.00 0.00 12 1006.9
20260504235922 84 248 3.0 15.0 0.00 0.00 0.00 12 1010.9
20260504235419 84 303 5.0 21.0 0.00 0.00 0.00 12 1010.8
20260504235304 84 231 1.0 21.0 0.00 0.00 0.00 12 1007.0
20260504234915 84 257 1.0 13.0 0.00 0.00 0.00 12 1011.0
20260504234804 84 205 2.0 20.0 0.00 0.00 0.00 12 1007.2
20260504234413 84 222 0.0 16.0 0.00 0.00 0.00 13 1010.7
20260504234304 84 270 1.0 20.0 0.00 0.00 0.00 13 1007.1
20260504233909 84 299 6.0 20.0 0.00 0.00 0.00 14 1010.6
20260504233405 84 216 2.0 18.0 0.00 0.00 0.00 17 1010.7
20260504233304 84 44 3.0 21.0 0.00 0.00 0.00 17 1007.0
20260504232902 84 270 1.0 15.0 0.00 0.00 0.00 18 1010.9
20260504232804 84 239 0.0 24.0 0.00 0.00 0.00 19 1007.1
20260504232359 84 268 0.0 5.0 0.00 0.00 0.00 19 1010.6
20260504232304 84 258 3.0 24.0 0.00 0.00 0.00 20 1007.2
20260504231856 84 279 4.0 18.0 0.00 0.00 0.00 19 1011.0
20260504231804 84 286 1.0 20.0 0.00 0.00 0.00 20 1006.9
20260504231352 84 260 1.0 3.0 0.00 0.00 0.00 19 1010.8
20260504231303 84 287 1.0 16.0 0.00 0.00 0.00 19 1007.0
20260504230848 84 235 4.0 16.0 0.00 0.00 0.00 19 1011.0
20260504230804 84 182 2.0 16.0 0.00 0.00 0.00 20 1007.2
20260504230346 84 250 3.0 11.0 0.00 0.00 0.00 20 1010.9
20260504225845 84 233 0.0 11.0 0.00 0.00 0.00 19 1011.1
20260504225804 85 240 1.0 18.0 0.00 0.00 0.00 19 1007.2
20260504225341 85 195 0.0 14.0 0.00 0.00 0.00 19 1010.9
20260504225304 85 254 3.0 18.0 0.00 0.00 0.00 19 1007.4
20260504224839 85 307 0.0 13.0 0.00 0.00 0.00 19 1011.1
20260504224804 85 273 1.0 18.0 0.00 0.00 0.00 19 1007.3
20260504224335 85 258 0.0 6.0 0.00 0.00 0.00 19 1011.1
20260504223832 85 268 6.0 18.0 0.00 0.00 0.00 18 1011.1
20260504223327 85 297 3.0 18.0 0.00 0.00 0.00 18 1011.1
20260504222824 85 221 2.0 9.0 0.00 0.00 0.00 18 1011.3
20260504222804 85 274 3.0 24.0 0.00 0.00 0.00 18 1007.5
20260504222321 86 223 3.0 24.0 0.00 0.00 0.00 18 1011.2
20260504222305 86 216 5.0 20.0 0.00 0.00 0.00 17 1007.4
20260504221820 86 302 3.0 14.0 0.00 0.00 0.00 16 1011.4
20260504221803 86 292 6.0 30.0 0.00 0.00 0.00 16 1007.7
20260504221316 86 275 1.0 11.0 0.00 0.00 0.00 16 1011.4
20260504221304 86 250 1.0 30.0 0.00 0.00 0.00 15 1007.5
20260504220813 86 326 0.0 30.0 0.00 0.00 0.00 16 1011.7
20260504220804 86 116 5.0 21.0 0.00 0.00 0.00 15 1007.9
20260504220310 87 329 6.0 17.0 0.00 0.00 0.00 15 1011.6
20260504215807 86 248 0.0 15.0 0.00 0.00 0.00 15 1011.8
20260504215804 86 186 1.0 31.0 0.00 0.00 0.00 16 1007.8
20260504215304 86 246 4.0 31.0 0.00 0.00 0.00 17 1011.6
20260504214804 86 235 6.0 22.0 0.00 0.00 0.00 18 1008.0
20260504214759 85 235 6.0 13.0 0.00 0.00 0.00 17 1011.7
20260504214304 87 256 1.0 23.0 0.00 0.00 0.00 17 1008.1
20260504214256 87 307 0.0 17.0 0.00 0.00 0.00 17 1011.9
20260504213804 85 264 3.0 23.0 0.00 0.00 0.00 17 1008.1
20260504213753 86 316 0.0 1.0 0.00 0.00 0.00 17 1012.0
20260504213249 86 178 2.0 11.0 0.00 0.00 0.00 17 1012.0
20260504212746 86 299 0.0 20.0 0.00 0.00 0.00 17 1012.1
20260504212242 86 356 1.0 31.0 0.00 0.00 0.00 17 1012.1
20260504211804 86 201 2.0 21.0 0.00 0.00 0.00 18 1008.0
20260504211740 86 201 4.0 14.0 0.00 0.00 0.00 18 1011.9
20260504211304 86 225 1.0 21.0 0.00 0.00 0.00 17 1008.8
20260504211236 86 224 2.0 16.0 0.00 0.00 0.00 17 1012.8
20260504210804 87 218 3.0 21.0 0.00 0.00 0.00 17 1008.4
20260504210734 87 218 5.0 21.0 0.00 0.00 0.00 17 1012.3
20260504210304 86 205 3.0 28.0 0.00 0.00 0.00 17 1008.3
20260504210231 86 205 5.0 13.0 0.00 0.00 0.00 17 1012.2
20260504205727 86 236 11.0 18.0 0.00 0.00 0.00 17 1012.6
20260504205304 86 323 2.0 28.0 0.00 0.00 0.00 16 1008.7
20260504205225 86 335 0.0 27.0 0.00 0.00 0.00 16 1012.7
20260504204804 85 242 7.0 26.0 0.00 0.00 0.00 18 1008.8
20260504204723 85 241 2.0 25.0 0.00 0.00 0.00 18 1012.8
20260504204304 85 274 4.0 38.0 0.00 0.00 0.00 18 1008.9
20260504204222 85 274 4.0 11.0 0.00 0.00 0.00 18 1012.9
20260504203721 86 284 9.0 23.0 0.00 0.00 0.00 18 1013.0
20260504203304 85 235 2.0 38.0 0.00 0.00 0.00 18 1008.8
20260504203218 85 235 2.0 20.0 0.00 0.00 0.00 18 1012.8
20260504202804 84 212 6.0 26.0 0.00 0.00 0.00 18 1008.9
20260504202717 84 212 4.0 18.0 0.00 0.00 0.00 18 1012.9
20260504202305 85 269 3.0 25.0 0.00 0.00 0.00 18 1009.0
20260504202215 85 270 3.0 20.0 0.00 0.00 0.00 18 1013.0
20260504201803 84 261 5.0 25.0 0.00 0.00 0.00 19 1008.9
20260504201712 84 261 5.0 18.0 0.00 0.00 0.00 19 1012.9
20260504201303 85 285 8.0 24.0 0.00 0.00 0.00 20 1009.1
20260504201209 85 287 9.0 24.0 0.00 0.00 0.00 20 1013.1
20260504200803 84 242 1.0 22.0 0.00 0.00 0.00 20 1009.1
20260504200707 84 240 1.0 22.0 0.00 0.00 0.00 20 1013.1
20260504200304 85 288 3.0 22.0 0.00 0.00 0.00 20 1009.3
20260504200202 85 288 3.0 13.0 0.00 0.00 0.00 20 1013.3
20260504195804 85 275 3.0 22.0 0.00 0.00 0.00 21 1009.3
20260504195659 85 277 4.0 15.0 0.00 0.00 0.00 21 1013.3
20260504195304 84 275 2.0 23.0 0.00 0.00 0.00 20 1009.5
20260504195155 84 278 3.0 22.0 0.00 0.00 0.00 20 1013.6
20260504194804 84 284 2.0 23.0 0.00 0.00 0.00 20 1009.5
20260504194652 84 284 1.0 18.0 0.00 0.00 0.00 20 1013.6
20260504194303 85 324 3.0 23.0 0.00 0.00 0.00 20 1009.4
20260504194148 85 326 3.0 17.0 0.00 0.00 0.00 20 1013.5
20260504193803 84 283 3.0 18.0 0.00 0.00 0.00 21 1009.5
20260504193644 84 284 6.0 18.0 0.00 0.00 0.00 21 1013.6
20260504193142 84 293 1.0 18.0 0.00 0.00 0.00 21 1013.6
20260504192804 84 206 0.0 18.0 0.00 0.00 0.00 22 1009.7
20260504192640 84 218 0.0 0.0 0.00 0.00 0.00 21 1014.0
20260504192304 84 257 1.0 18.0 0.00 0.00 0.00 21 1009.8
20260504192138 84 253 1.0 5.0 0.00 0.00 0.00 21 1013.8
20260504191803 83 329 2.0 18.0 0.00 0.00 0.00 21 1009.8
20260504191636 84 306 3.0 18.0 0.00 0.00 0.00 20 1014.0
20260504191132 84 288 5.0 18.0 0.00 0.00 0.00 20 1014.0
20260504190804 84 243 1.0 28.0 0.00 0.00 0.00 20 1009.8
20260504190628 84 341 0.0 5.0 0.00 0.00 0.00 21 1013.9
20260504190303 83 272 0.0 28.0 0.00 0.00 0.00 23 1009.9
20260504190125 83 265 0.0 16.0 0.00 0.00 0.00 22 1014.0
20260504185804 83 182 0.0 28.0 0.00 0.00 0.00 21 1010.2
20260504185621 83 201 0.0 27.0 0.00 0.00 0.00 21 1014.1
20260504185304 84 274 9.0 24.0 0.00 0.00 0.00 20 1010.1
20260504185118 84 205 9.0 23.0 0.00 0.00 0.00 19 1014.2
20260504184803 83 290 5.0 23.0 0.00 0.00 0.00 21 1010.0
20260504184614 84 298 8.0 13.0 0.00 0.00 0.00 21 1014.2
20260504184109 84 290 0.0 22.0 0.00 0.00 0.00 20 1014.2
20260504183804 84 312 7.0 28.0 0.00 0.00 0.00 21 1010.2
20260504183607 84 334 6.0 13.0 0.00 0.00 0.00 20 1014.7
20260504183305 84 331 5.0 28.0 0.00 0.00 0.00 21 1010.4
20260504183104 84 314 2.0 16.0 0.00 0.00 0.00 22 1014.6
20260504182804 83 311 1.0 24.0 0.00 0.00 0.00 22 1010.5
20260504182601 83 278 0.0 7.0 0.00 0.00 0.00 22 1014.5
20260504182304 83 214 3.0 24.0 0.00 0.00 0.00 22 1010.9
20260504182059 83 312 0.0 13.0 0.00 0.00 0.00 22 1014.8
20260504181555 83 308 7.0 24.0 0.00 0.00 0.00 21 1015.1
20260504181054 84 226 0.0 23.0 0.00 0.00 0.00 22 1015.0
20260504180804 84 283 2.0 17.0 0.00 0.00 0.00 20 1010.8
20260504180552 84 310 2.0 17.0 0.00 0.00 0.00 20 1015.0
20260504180303 83 265 1.0 17.0 0.00 0.00 0.00 22 1010.9
20260504180051 83 233 0.0 16.0 0.00 0.00 0.00 22 1015.2
20260504175804 83 313 4.0 21.0 0.00 0.00 0.00 22 1010.9
20260504175548 83 300 7.0 17.0 0.00 0.00 0.00 21 1015.4
20260504175304 83 324 2.0 21.0 0.00 0.00 0.00 22 1011.1
20260504175044 83 178 0.0 20.0 0.00 0.00 0.00 21 1015.1
20260504174804 82 291 5.0 22.0 0.00 0.00 0.00 21 1011.1
20260504174543 82 305 1.0 9.0 0.00 0.00 0.00 23 1015.1
20260504174304 83 200 3.0 22.0 0.00 0.00 0.00 22 1011.1
20260504174039 82 287 7.0 22.0 0.00 0.00 0.00 22 1015.4
20260504173804 82 2 4.0 20.0 0.00 0.00 0.00 22 1011.1
20260504173536 82 263 9.0 20.0 0.00 0.00 0.00 21 1015.6
20260504173033 83 327 0.0 18.0 0.00 0.00 0.00 23 1015.6
20260504172804 82 287 3.0 30.0 0.00 0.00 0.00 23 1011.4
20260504172529 82 320 2.0 15.0 0.00 0.00 0.00 22 1015.5
20260504172305 82 279 3.0 23.0 0.00 0.00 0.00 23 1011.4
20260504172026 82 295 10.0 22.0 0.00 0.00 0.00 22 1016.0
20260504171804 82 314 4.0 23.0 0.00 0.00 0.00 22 1011.5
20260504171523 82 314 7.0 23.0 0.00 0.00 0.00 23 1015.7
20260504171304 82 297 1.0 25.0 0.00 0.00 0.00 22 1011.5
20260504171020 82 280 10.0 23.0 0.00 0.00 0.00 22 1016.1
20260504170804 82 294 3.0 25.0 0.00 0.00 0.00 22 1011.4
20260504170516 83 301 0.0 25.0 0.00 0.00 0.00 22 1015.6
20260504170304 83 269 3.0 25.0 0.00 0.00 0.00 23 1011.7
20260504160436 79 278 1.0 5.0 0.00 0.00 0.00 25 1016.3
20260504160304 79 337 3.0 21.0 0.00 0.00 0.00 26 1011.9
20260504150859 75 160 7.0 16.0 0.00 0.00 0.00 33 1016.7
20260504150804 74 263 0.0 15.0 0.00 0.00 0.00 33 1012.3
20260504150356 74 271 0.0 14.0 0.00 0.00 0.00 33 1016.6
20260504150303 73 201 0.0 9.0 0.00 0.00 0.00 34 1012.0
20260504141326 67 248 0.0 0.0 0.00 0.00 0.00 46 1016.8
20260504140823 67 247 0.0 1.0 0.00 0.00 0.00 47 1016.8
20260504140318 66 200 0.0 1.0 0.00 0.00 0.00 48 1016.6
20260504140304 66 155 0.0 1.0 0.00 0.00 0.00 48 1012.0
20260504130804 60 211 0.0 7.0 0.00 0.00 0.00 56 1011.7
20260504130747 61 314 0.0 0.0 0.00 0.00 0.00 56 1016.0
20260504130304 60 296 0.0 10.0 0.00 0.00 0.00 57 1011.5
20260504130243 60 231 0.0 1.0 0.00 0.00 0.00 57 1016.0